Time,TemperatureF,DewpointF,PressureIn,WindDirection,WindDirectionDegrees,WindSpeedMPH,WindSpeedGustMPH,Humidity,HourlyPrecipIn,Conditions,Clouds,dailyrainin,SoftwareType,DateUTC
2013-06-13 00:14:00,57.7,55.0,29.80,SSE,156,0.0,0.0,89,0.00,,,0.00,weatherlink.com 1.10,2013-06-13 04:14:00,
2013-06-13 00:29:00,57.1,54.0,29.80,SSE,156,0.0,0.0,90,0.00,,,0.00,weatherlink.com 1.10,2013-06-13 04:29:00,
2013-06-13 00:44:00,57.0,55.0,29.79,SSE,156,0.0,0.0,91,0.00,,,0.00,weatherlink.com 1.10,2013-06-13 04:44:00,
2013-06-13 00:59:00,57.0,55.0,29.79,SSE,156,0.0,0.0,91,0.00,,,0.00,weatherlink.com 1.10,2013-06-13 04:59:00,
2013-06-13 01:15:00,56.5,54.0,29.79,SSE,156,0.0,0.0,91,0.00,,,0.00,weatherlink.com 1.10,2013-06-13 05:15:00,
2013-06-13 01:30:00,56.1,54.0,29.80,SSE,156,0.0,0.0,92,0.00,,,0.00,weatherlink.com 1.10,2013-06-13 05:30:00,
2013-06-13 01:45:00,56.0,54.0,29.80,SSE,156,0.0,0.0,92,0.00,,,0.00,weatherlink.com 1.10,2013-06-13 05:45:00,
2013-06-13 02:00:00,55.8,54.0,29.79,SSE,156,0.0,0.0,93,0.00,,,0.00,weatherlink.com 1.10,2013-06-13 06:00:00,
2013-06-13 02:15:00,55.7,54.0,29.80,SSE,156,0.0,0.0,93,0.00,,,0.00,weatherlink.com 1.10,2013-06-13 06:15:00,
2013-06-13 02:30:00,55.8,54.0,29.79,SSE,156,0.0,0.0,94,0.00,,,0.00,weatherlink.com 1.10,2013-06-13 06:30:00,
2013-06-13 02:45:00,55.7,54.0,29.79,SSE,156,0.0,0.0,94,0.00,,,0.00,weatherlink.com 1.10,2013-06-13 06:45:00,
2013-06-13 03:00:00,55.5,54.0,29.78,SSE,156,0.0,0.0,94,0.00,,,0.00,weatherlink.com 1.10,2013-06-13 07:00:00,
2013-06-13 03:15:00,55.1,54.0,29.79,SSE,156,0.0,0.0,94,0.00,,,0.00,weatherlink.com 1.10,2013-06-13 07:15:00,
2013-06-13 03:30:00,55.0,54.0,29.78,SSE,156,0.0,0.0,95,0.00,,,0.00,weatherlink.com 1.10,2013-06-13 07:30:00,
2013-06-13 03:45:00,54.9,54.0,29.79,SSE,157,0.0,0.0,95,0.00,,,0.00,weatherlink.com 1.10,2013-06-13 07:45:00,
2013-06-13 04:00:00,54.6,53.0,29.79,SSE,156,0.0,0.0,95,0.00,,,0.00,weatherlink.com 1.10,2013-06-13 08:00:00,
2013-06-13 04:15:00,54.3,53.0,29.79,SSE,156,0.0,0.0,95,0.00,,,0.00,weatherlink.com 1.10,2013-06-13 08:15:00,
2013-06-13 04:30:00,54.0,53.0,29.79,SSE,157,0.0,0.0,95,0.00,,,0.00,weatherlink.com 1.10,2013-06-13 08:30:00,
2013-06-13 04:45:00,53.9,53.0,29.79,SSE,157,0.0,0.0,95,0.00,,,0.00,weatherlink.com 1.10,2013-06-13 08:45:00,
2013-06-13 05:00:00,53.9,53.0,29.79,SSE,156,0.0,0.0,96,0.00,,,0.00,weatherlink.com 1.10,2013-06-13 09:00:00,
2013-06-13 05:15:00,53.9,53.0,29.80,SSE,156,0.0,0.0,96,0.00,,,0.00,weatherlink.com 1.10,2013-06-13 09:15:00,
2013-06-13 05:30:00,54.1,53.0,29.81,SSE,156,0.0,0.0,96,0.00,,,0.00,weatherlink.com 1.10,2013-06-13 09:30:00,
2013-06-13 05:45:00,54.4,53.0,29.80,SSE,156,0.0,0.0,96,0.00,,,0.00,weatherlink.com 1.10,2013-06-13 09:45:00,
2013-06-13 06:00:00,55.0,54.0,29.80,SSE,156,0.0,0.0,96,0.00,,,0.00,weatherlink.com 1.10,2013-06-13 10:00:00,
2013-06-13 06:15:00,55.9,55.0,29.79,SSE,156,0.0,0.0,97,0.00,,,0.00,weatherlink.com 1.10,2013-06-13 10:15:00,
2013-06-13 06:30:00,56.7,56.0,29.79,SSE,157,0.0,0.0,97,0.00,,,0.00,weatherlink.com 1.10,2013-06-13 10:30:00,
2013-06-13 06:45:00,57.1,56.0,29.79,SSE,155,0.0,0.0,96,0.00,,,0.00,weatherlink.com 1.10,2013-06-13 10:45:00,
2013-06-13 07:00:00,57.4,56.0,29.78,SSE,150,0.0,0.0,96,0.00,,,0.00,weatherlink.com 1.10,2013-06-13 11:00:00,
2013-06-13 07:15:00,58.0,57.0,29.79,SSE,150,0.0,0.0,96,0.00,,,0.00,weatherlink.com 1.10,2013-06-13 11:15:00,
2013-06-13 07:30:00,58.4,57.0,29.79,SSE,150,0.0,0.0,96,0.00,,,0.00,weatherlink.com 1.10,2013-06-13 11:30:00,
2013-06-13 07:45:00,59.1,58.0,29.79,SSE,150,0.0,0.0,95,0.00,,,0.00,weatherlink.com 1.10,2013-06-13 11:45:00,
2013-06-13 08:00:00,59.2,58.0,29.79,SSE,150,0.0,0.0,95,0.00,,,0.00,weatherlink.com 1.10,2013-06-13 12:00:00,
2013-06-13 08:15:00,59.0,57.0,29.78,SSE,150,0.0,0.0,94,0.00,,,0.00,weatherlink.com 1.10,2013-06-13 12:15:00,
2013-06-13 08:30:00,59.1,57.0,29.78,SSE,150,0.0,0.0,94,0.00,,,0.00,weatherlink.com 1.10,2013-06-13 12:30:00,
2013-06-13 08:45:00,59.3,57.0,29.77,SSE,150,0.0,0.0,93,0.00,,,0.00,weatherlink.com 1.10,2013-06-13 12:45:00,
2013-06-13 09:00:00,59.5,58.0,29.78,SE,146,0.0,0.0,93,0.00,,,0.00,weatherlink.com 1.10,2013-06-13 13:00:00,
2013-06-13 09:15:00,59.6,57.0,29.78,SE,143,0.0,0.0,92,0.00,,,0.00,weatherlink.com 1.10,2013-06-13 13:15:00,
2013-06-13 09:30:00,60.0,58.0,29.78,SE,143,0.0,0.0,93,0.00,,,0.00,weatherlink.com 1.10,2013-06-13 13:30:00,
2013-06-13 09:45:00,61.2,59.0,29.77,SE,134,0.0,0.0,92,0.00,,,0.00,weatherlink.com 1.10,2013-06-13 13:45:00,
2013-06-13 10:00:00,61.5,59.0,29.76,ESE,110,0.0,0.0,91,0.00,,,0.00,weatherlink.com 1.10,2013-06-13 14:00:00,
2013-06-13 10:15:00,61.2,59.0,29.76,ESE,103,0.0,0.0,91,0.00,,,0.00,weatherlink.com 1.10,2013-06-13 14:15:00,
2013-06-13 10:30:00,61.1,59.0,29.77,East,97,0.0,0.0,91,0.00,,,0.00,weatherlink.com 1.10,2013-06-13 14:30:00,
2013-06-13 10:45:00,60.7,58.0,29.75,East,97,0.0,0.0,91,0.00,,,0.00,weatherlink.com 1.10,2013-06-13 14:45:00,
2013-06-13 11:00:00,60.8,58.0,29.75,East,97,0.0,0.0,91,0.00,,,0.00,weatherlink.com 1.10,2013-06-13 15:00:00,
2013-06-13 11:15:00,61.1,59.0,29.75,East,95,0.0,0.0,92,0.00,,,0.00,weatherlink.com 1.10,2013-06-13 15:15:00,
2013-06-13 11:30:00,61.1,59.0,29.75,ESE,109,0.0,0.0,91,0.00,,,0.00,weatherlink.com 1.10,2013-06-13 15:30:00,
2013-06-13 11:45:00,61.1,59.0,29.75,ESE,109,0.0,0.0,92,0.00,,,0.00,weatherlink.com 1.10,2013-06-13 15:45:00,
2013-06-13 12:00:00,60.7,59.0,29.75,ESE,109,0.0,0.0,93,0.00,,,0.00,weatherlink.com 1.10,2013-06-13 16:00:00,
2013-06-13 12:15:00,60.4,59.0,29.76,ESE,109,0.0,0.0,94,0.00,,,0.00,weatherlink.com 1.10,2013-06-13 16:15:00,
2013-06-13 12:30:00,59.9,59.0,29.75,ESE,110,0.0,0.0,95,0.00,,,0.00,weatherlink.com 1.10,2013-06-13 16:30:00,
2013-06-13 12:45:00,59.4,58.0,29.72,East,89,0.0,0.0,95,0.00,,,0.00,weatherlink.com 1.10,2013-06-13 16:45:00,
2013-06-13 13:16:00,59.2,58.0,29.69,East,89,0.0,0.0,96,0.00,,,0.00,weatherlink.com 1.10,2013-06-13 17:16:00,
2013-06-13 13:31:00,59.0,58.0,29.68,East,100,0.0,0.0,96,0.00,,,0.00,weatherlink.com 1.10,2013-06-13 17:31:00,
2013-06-13 14:01:00,59.5,59.0,29.67,East,91,0.0,0.0,97,0.00,,,0.00,weatherlink.com 1.10,2013-06-13 18:01:00,
2013-06-13 14:16:00,59.0,58.0,29.69,East,89,0.0,0.0,96,0.00,,,0.00,weatherlink.com 1.10,2013-06-13 18:16:00,
2013-06-13 14:31:00,58.9,58.0,29.69,East,88,0.0,0.0,96,0.00,,,0.00,weatherlink.com 1.10,2013-06-13 18:31:00,
2013-06-13 14:47:00,58.7,57.0,29.70,East,85,0.0,0.0,95,0.00,,,0.00,weatherlink.com 1.10,2013-06-13 18:47:00,
2013-06-13 15:01:00,58.9,58.0,29.68,East,89,0.0,0.0,95,0.00,,,0.00,weatherlink.com 1.10,2013-06-13 19:01:00,
2013-06-13 15:16:00,59.5,58.0,29.67,East,98,0.0,0.0,94,0.00,,,0.00,weatherlink.com 1.10,2013-06-13 19:16:00,
2013-06-13 15:31:00,59.3,57.0,29.67,East,84,0.0,0.0,93,0.00,,,0.00,weatherlink.com 1.10,2013-06-13 19:31:00,
2013-06-13 15:46:00,59.1,57.0,29.67,East,98,0.0,0.0,93,0.00,,,0.00,weatherlink.com 1.10,2013-06-13 19:46:00,
2013-06-13 16:01:00,58.9,57.0,29.66,East,100,0.0,0.0,93,0.00,,,0.00,weatherlink.com 1.10,2013-06-13 20:01:00,
2013-06-13 16:16:00,58.9,57.0,29.65,East,98,0.0,0.0,93,0.00,,,0.00,weatherlink.com 1.10,2013-06-13 20:16:00,
2013-06-13 16:31:00,58.7,57.0,29.64,East,96,0.0,0.0,94,0.00,,,0.00,weatherlink.com 1.10,2013-06-13 20:31:00,
2013-06-13 16:46:00,58.6,57.0,29.64,East,100,0.0,0.0,95,0.00,,,0.00,weatherlink.com 1.10,2013-06-13 20:46:00,
2013-06-13 17:01:00,58.3,57.0,29.63,East,88,0.0,0.0,95,0.00,,,0.00,weatherlink.com 1.10,2013-06-13 21:01:00,
2013-06-13 17:16:00,58.4,57.0,29.62,NE,56,0.0,0.0,95,0.00,,,0.00,weatherlink.com 1.10,2013-06-13 21:16:00,
2013-06-13 17:31:00,58.3,57.0,29.61,East,87,0.0,0.0,94,0.00,,,0.00,weatherlink.com 1.10,2013-06-13 21:31:00,
2013-06-13 17:46:00,58.2,57.0,29.61,ENE,68,0.0,0.0,94,0.00,,,0.00,weatherlink.com 1.10,2013-06-13 21:46:00,
2013-06-13 18:01:00,58.2,57.0,29.61,ENE,72,0.0,0.0,94,0.00,,,0.00,weatherlink.com 1.10,2013-06-13 22:01:00,
2013-06-13 18:16:00,58.3,57.0,29.61,ENE,77,0.0,1.0,94,0.00,,,0.00,weatherlink.com 1.10,2013-06-13 22:16:00,
2013-06-13 18:31:00,58.2,57.0,29.59,East,100,0.0,2.0,94,0.00,,,0.00,weatherlink.com 1.10,2013-06-13 22:31:00,
2013-06-13 18:46:00,58.1,56.0,29.59,East,100,2.0,2.0,94,0.00,,,0.00,weatherlink.com 1.10,2013-06-13 22:46:00,
2013-06-13 19:01:00,58.0,56.0,29.59,East,81,3.0,3.0,94,0.00,,,0.00,weatherlink.com 1.10,2013-06-13 23:01:00,
2013-06-13 19:16:00,58.0,56.0,29.58,East,85,2.0,4.0,93,0.00,,,0.00,weatherlink.com 1.10,2013-06-13 23:16:00,
2013-06-13 19:31:00,58.1,56.0,29.57,East,85,5.0,5.0,93,0.00,,,0.00,weatherlink.com 1.10,2013-06-13 23:31:00,
2013-06-13 19:46:00,58.1,56.0,29.57,NE,41,4.0,5.0,93,0.00,,,0.00,weatherlink.com 1.10,2013-06-13 23:46:00,
2013-06-13 20:01:00,58.2,56.0,29.58,East,98,0.0,6.0,92,0.00,,,0.00,weatherlink.com 1.10,2013-06-14 00:01:00,
2013-06-13 20:16:00,58.2,56.0,29.59,ENE,75,2.0,3.0,92,0.00,,,0.00,weatherlink.com 1.10,2013-06-14 00:16:00,
2013-06-13 20:31:00,58.2,56.0,29.59,East,101,1.0,4.0,92,0.00,,,0.00,weatherlink.com 1.10,2013-06-14 00:31:00,
2013-06-13 20:47:00,57.1,55.0,29.59,ENE,68,2.0,5.0,92,0.00,,,0.00,weatherlink.com 1.10,2013-06-14 00:47:00,
2013-06-13 21:01:00,56.6,55.0,29.58,ENE,66,3.0,4.0,94,0.00,,,0.00,weatherlink.com 1.10,2013-06-14 01:01:00,
2013-06-13 21:16:00,56.3,55.0,29.57,ENE,67,2.0,4.0,94,0.00,,,0.00,weatherlink.com 1.10,2013-06-14 01:16:00,
2013-06-13 21:31:00,56.4,55.0,29.57,East,95,1.0,4.0,95,0.00,,,0.00,weatherlink.com 1.10,2013-06-14 01:31:00,
2013-06-13 21:46:00,56.3,55.0,29.57,ENE,75,1.0,4.0,95,0.00,,,0.00,weatherlink.com 1.10,2013-06-14 01:46:00,
2013-06-13 22:01:00,56.5,55.0,29.56,East,86,1.0,6.0,95,0.00,,,0.00,weatherlink.com 1.10,2013-06-14 02:01:00,
2013-06-13 22:16:00,56.1,55.0,29.55,East,95,2.0,6.0,95,0.00,,,0.00,weatherlink.com 1.10,2013-06-14 02:16:00,
2013-06-13 22:31:00,56.1,55.0,29.55,ESE,106,0.0,3.0,96,0.00,,,0.00,weatherlink.com 1.10,2013-06-14 02:31:00,
2013-06-13 22:46:00,56.0,55.0,29.53,ESE,102,1.0,5.0,96,0.00,,,0.00,weatherlink.com 1.10,2013-06-14 02:46:00,
2013-06-13 23:01:00,56.0,55.0,29.53,East,95,1.0,3.0,96,0.00,,,0.00,weatherlink.com 1.10,2013-06-14 03:01:00,
2013-06-13 23:16:00,55.9,55.0,29.53,East,89,2.0,3.0,97,0.00,,,0.00,weatherlink.com 1.10,2013-06-14 03:16:00,
2013-06-13 23:31:00,55.8,55.0,29.51,East,100,4.0,5.0,97,0.00,,,0.00,weatherlink.com 1.10,2013-06-14 03:31:00,
2013-06-13 23:47:00,55.5,55.0,29.50,ENE,75,3.0,5.0,97,0.00,,,0.00,weatherlink.com 1.10,2013-06-14 03:47:00,